TIROS N [P] 1 11060U 78096A 10073.68664134 .00000042 00000-0 42938-4 0 4303 2 11060 98.9674 51.0560 0010412 330.2296 29.8277 14.17498486837277 NOAA 1 [-] 1 04793U 70106A 10073.07376188 -.00000031 00000-0 10000-3 0 4486 2 04793 102.0932 73.7658 0031917 283.8354 75.9164 12.53936677796746 NOAA 2 [-] 1 06235U 72082A 10073.34337095 -.00000027 00000-0 10000-3 0 5473 2 06235 101.3936 85.3700 0003944 114.9317 245.2165 12.53006873711302 NOAA 3 [-] 1 06920U 73086A 10073.06315252 -.00000030 00000-0 10000-3 0 4393 2 06920 101.7065 90.3330 0006416 25.0245 335.1132 12.40303987645732 NOAA 4 [-] 1 07529U 74089A 10073.26615390 -.00000027 00000-0 10000-3 0 4500 2 07529 101.4218 92.8888 0009214 148.5019 211.6609 12.53055962615879 NOAA 5 [-] 1 09057U 76077A 10073.31627215 -.00000031 00000-0 10000-3 0 3270 2 09057 101.8752 113.3298 0009566 205.3677 154.6910 12.37818761519904 NOAA 6 [P] 1 11416U 79057A 10073.11695453 .00000074 00000-0 43428-4 0 1905 2 11416 98.4037 84.6800 0010203 177.6720 182.4516 14.31964507600348 NOAA 7 [-] 1 12553U 81059A 10073.35145864 .00000000 00000-0 21598-4 0 3012 2 12553 98.6924 25.2588 0010623 262.9229 97.0734 14.16779656483782 NOAA 8 [-] 1 13923U 83022A 10073.16784609 .00000015 00000-0 23310-4 0 2009 2 13923 98.5342 102.2490 0016269 39.9689 320.2688 14.27728861403379 NOAA 9 [P] 1 15427U 84123A 10073.48423049 -.00000167 00000-0 -64421-4 0 574 2 15427 98.4633 62.1818 0015125 4.0735 356.0556 14.15343844303196 NOAA 10 [-] 1 16969U 86073A 10073.38245355 .00000106 00000-0 60937-4 0 9908 2 16969 98.6679 103.1999 0013071 126.1544 234.0854 14.27409679222051 NOAA 11 [-] 1 19531U 88089A 10073.27035933 -.00000187 00000-0 -74019-4 0 56 2 19531 98.7683 163.9123 0012374 59.6871 300.5504 14.14917000107710 NOAA 12 [B] 1 21263U 91032A 10073.53239085 .00000054 00000-0 41506-4 0 4911 2 21263 98.7698 86.6900 0013359 81.9746 278.2947 14.25621376978918 NOAA 13 [-] 1 22739U 93050A 10073.27731002 -.00000084 00000-0 -22057-4 0 370 2 22739 98.8421 155.2462 0009629 151.8083 208.3620 14.12233285855082 NOAA 14 [-] 1 23455U 94089A 10073.52043843 .00000017 00000-0 32497-4 0 9839 2 23455 98.8821 154.9085 0009874 140.1257 220.0640 14.13780895784129 NOAA 15 [+] 1 25338U 98030A 10073.49190915 .00000174 00000-0 93228-4 0 3028 2 25338 98.6118 62.1469 0010597 356.2842 3.8250 14.24812475615262 NOAA 16 [+] 1 26536U 00055A 10073.45213566 .00000302 00000-0 18846-3 0 7808 2 26536 99.1760 88.6658 0009852 240.6034 119.4170 14.12550673488456 NOAA 17 [+] 1 27453U 02032A 10073.28945324 -.00000038 00000-0 14583-5 0 7846 2 27453 98.4433 127.5039 0012553 58.0700 302.1703 14.24138295401197 NOAA 18 [+] 1 28654U 05018A 10073.37393202 -.00000052 00000-0 -40438-5 0 2692 2 28654 98.9402 19.9548 0013982 324.4554 35.5682 14.11335901248062 NOAA 19 [S] 1 33591U 09005A 10073.34134679 .00000039 00000-0 45451-4 0 4689 2 33591 98.7795 17.5182 0013808 194.4729 165.6050 14.11032163 56532